Location: ??????????
(42.1626°N, 44.1160°E)
Time: 17:06:04
(UTC+00:00)

Cosmos 1844 - Pass Details

Date: 20 June 2021
Orbit: 823 x 867 km, 70.9° (Epoch: 01 August)

Event Time Altitude Azimuth Distance (km) Brightness Sun altitude
Rises 18:43:22 0° 330° (NNW) 3,371 8.6 -16.7°
Reaches altitude 10° 18:45:51 10° 326° (NW) 2,437 7.4 -16.9°
Maximum altitude 18:51:13 51° 252° (WSW) 1,039 4.2 -17.5°
Enters shadow 18:54:34 23° 186° (S) 1,720 4.9 -17.8°
